Flag for Albania Weather past 2 weeks in Durrës, Albania

Now
91 °F

Passing clouds.


Feels Like: 91 °F
Forecast: 70 / 83 °F
Wind: 7 mph from Northwest

Location: Tirana Airport

Current Time: Jul 6, 2015 at 2:06:40 PM

Latest Report: Jul 6, 2015 at 1:20 PM


Visibility: N/A

Pressure: 30.04 "Hg

Humidity: 36%

Dew point: 61 °F

Location of DurrësLocation

Historic Weather in Durrës — Graph

°F

Durrës temperature yesterday

Maximum temperature yesterday: 91 °F (at 2:20 PM)
Minimum temperature yesterday: 63 °F (at 5:20 AM)
Average temperature yesterday: 76 °F

Past Weeks' High & Low Weather Summary

 TemperatureHumidityPressure
High93 °F (Jul 3, 2:20 PM)94% (Jun 25, 2:50 AM)30.18 "Hg (Jun 25, 2:50 AM)
Low55 °F (Jun 22, 3:50 AM)26% (Jul 4, 11:50 AM)29.86 "Hg (Jun 21, 12:50 PM)
Average72 °F59%30.02 "Hg
* Reported Jun 21 12:20 PM — Jul 6 12:50 PM, Durrës, Weather by CustomWeather, © 2015

Note: Actual official high and low records may vary slightly from our data, if they occured in-between our weather recording intervals... More about our weather records

Advertising

Durrës weather history for previous 24 hours

 ConditionsComfort  
Time TempWeatherWind HumidityBarometerVisibility
12:50 PM
Mon, Jul 6
90 °FPassing clouds.6 mph41%30.04 "HgN/A
12:20 PM90 °FSunny.2 mph41%30.07 "Hg10 mi
11:50 AM90 °FClear.No wind38%30.07 "HgN/A
11:20 AM88 °FSunny.3 mph40%30.07 "Hg10 mi
10:50 AM88 °FSunny.2 mph38%30.07 "Hg10 mi
10:20 AM86 °FSunny.No wind40%30.07 "Hg10 mi
9:50 AM84 °FSunny.No wind43%30.07 "Hg10 mi
9:20 AM81 °FSunny.No wind48%30.07 "Hg10 mi
8:50 AM79 °FSunny.2 mph54%30.09 "Hg10 mi
8:20 AM75 °FPassing clouds.3 mph57%30.09 "HgN/A
7:50 AM73 °FPassing clouds.3 mph61%30.07 "HgN/A
7:20 AM72 °FSunny.2 mph65%30.07 "Hg10 mi
6:50 AM68 °FSunny.3 mph78%30.07 "Hg10 mi
6:20 AM66 °FSunny.2 mph78%30.07 "Hg10 mi
5:20 AM64 °FClear.5 mph78%30.07 "Hg10 mi
4:50 AM64 °FPassing clouds.3 mph78%30.07 "HgN/A
4:20 AM64 °FClear.3 mph83%30.07 "Hg10 mi
3:50 AM66 °FClear.3 mph78%30.07 "Hg10 mi
3:20 AM66 °FClear.2 mph78%30.07 "Hg10 mi
2:50 AM64 °FClear.No wind88%30.07 "Hg10 mi
2:20 AM66 °FClear.2 mph73%30.07 "Hg10 mi
1:50 AM70 °FClear.2 mph69%30.07 "Hg10 mi
1:20 AM68 °FClear.2 mph69%30.07 "Hg10 mi
12:50 AM68 °FClear.3 mph69%30.07 "Hg10 mi
12:20 AM70 °FClear.5 mph69%30.07 "Hg10 mi
11:50 PM
Sun, Jul 5
72 °FClear.3 mph65%30.07 "Hg10 mi
11:20 PM72 °FClear.5 mph65%30.07 "Hg10 mi
10:50 PM72 °FClear.2 mph65%30.07 "Hg10 mi
10:20 PM72 °FClear.5 mph69%30.07 "Hg10 mi
9:50 PM72 °FClear.No wind69%30.07 "Hg10 mi
9:20 PM73 °FPassing clouds.3 mph61%30.07 "HgN/A
8:50 PM75 °FSunny.1 mph61%30.07 "Hg10 mi
8:20 PM75 °FSunny.7 mph54%30.04 "Hg10 mi
7:50 PM77 °FSunny.7 mph47%30.04 "Hg10 mi
7:20 PM79 °FSunny.8 mph45%30.04 "Hg10 mi
6:50 PM81 °FSunny.6 mph42%30.04 "Hg10 mi
6:20 PM82 °FSunny.7 mph40%30.07 "Hg10 mi
5:50 PM82 °FSunny.9 mph40%30.07 "Hg10 mi
5:20 PM82 °FPassing clouds.12 mph37%30.07 "HgN/A
4:50 PM84 °FSunny.10 mph43%30.07 "Hg10 mi
4:20 PM86 °FPassing clouds.10 mph46%30.07 "HgN/A
3:50 PM88 °FPassing clouds.12 mph43%30.07 "HgN/A
3:20 PM88 °FPassing clouds.10 mph40%30.07 "HgN/A
2:50 PM90 °FPassing clouds.10 mph38%30.07 "HgN/A
2:20 PM91 °FPassing clouds.7 mph32%30.07 "HgN/A
Weather by CustomWeather, © 2015

See weather overviewHow to use our weather pages